Regional Weather Roundup
Issued by NWS Cleveland, OH

Home | Current Version | Previous Version | Text Only | Print | Product List | Glossary On
Versions: 1 2 3 4 5 6 7 8 9 10 11 12 13 14 15 16 17 18 19 20 21 22 23 24 25 26 27 28 29 30 31 32 33 34 35 36 37 38 39 40 41 42 43 44 45 46 47 48 49 50
000
ASUS41 KCLE 151010
RWRCLE
OHIO REGIONAL WEATHER ROUNDUP
NATIONAL WEATHER SERVICE CLEVELAND, OH
600 AM EDT MON SEP 15 2014

NOTE: "FAIR" INDICATES FEW OR NO CLOUDS BELOW 12,000 FEET WITH NO
SIGNIFICANT WEATHER AND/OR OBSTRUCTIONS TO VISIBILITY.

OHZ001>008-015>018-024>027-034-035-043-044-151100-
   NORTHWEST OHIO

CITY           SKY/WX    TMP DP  RH WIND       PRES   REMARKS
DEFIANCE       PTCLDY    44  41  89 CALM      30.22R
FINDLAY        CLEAR     47  43  86 CALM      30.21R
TOLEDO EXPRESS PTCLDY    44  44 100 CALM      30.21S
TOLEDO EXEC    PTCLDY    48  44  86 SW3       30.22S
LIMA           CLEAR     48  45  89 S3        30.22R
$$

OHZ009>014-019>023-028>033-038-089-151100-
   NORTHEAST OHIO

CITY           SKY/WX    TMP DP  RH WIND       PRES   REMARKS
CLE-HOPKINS    PTCLDY    47  44  90 CALM      30.24R
CLE-LAKEFRONT  CLEAR     50  45  83 SE9       30.21R
CUY CO. ARPT   NOT AVBL
LORAIN-ELYRIA  CLEAR     50  45  83 S3        30.23R
ASHTABULA      PTCLDY    45  43  93 CALM      30.24R
AKRON-CANTON   CLEAR     48  43  82 CALM      30.22S
WOOSTER        FOG       41  39  93 CALM      30.24R VSB 3/4
MANSFIELD      CLEAR     44  43  96 S3        30.23R
YOUNGSTOWN     PTCLDY    41  40  96 E3        30.22S
$$

OHZ042-051>053-060>062-070>072-077>081-151100-
  SOUTHWEST OHIO

CITY           SKY/WX    TMP DP  RH WIND       PRES   REMARKS
CINC-COVINGTON CLEAR     51  48  89 N3        30.21R
CINC-LUNKEN    FOG       47  47 100 CALM      30.23R VSB 1/2
HAMILTON       CLEAR     45  44  97 CALM      30.23R FOG
DAYTON         CLEAR     48  45  89 NE3       30.23R
WRIGHT-PAT AFB PTCLDY    48  45  87 CALM      30.22S
DAYTON GENERAL CLEAR     50  47  89 CALM      30.21R
WILMINGTON     CLEAR     46  43  89 CALM      30.22R
$$

OHZ036-037-039>041-045>050-054>059-063>069-073>076-082>088-151100-
  CENTRAL AND SOUTHEAST OHIO

CITY           SKY/WX    TMP DP  RH WIND       PRES   REMARKS
COLUMBUS       CLEAR     50  44  80 CALM      30.23R
OSU AIRPORT    CLEAR     46  44  93 CALM      30.23R
BOLTON FIELD   CLEAR     44  44  99 CALM      30.23R
RICKENBACK AFB CLEAR     44  43  93 NE3       30.22R
NEWARK         FOG       41  39  93 CALM      30.23R VSB 3/4
MARION         CLEAR     46  43  89 CALM      30.23R
LANCASTER      CLEAR     44  42  93 CALM      30.23R
ZANESVILLE     CLEAR     42  39  89 CALM      30.23R
NEW PHILLY     FOG       44  44 100 CALM      30.24S VSB<1/4
$$


USA.gov is the U.S. government's official web portal to all federal, state and local government web resources and services.